Location: Te Maire Creek
(41.1333°S, 175.9167°E)
Time: 23:38:09
(UTC+00:00)

USA 59 Rocket - Pass Details

Date: 19 May 2024
Orbit: 383 x 1743 km, 63.3° (Epoch: 22 June)

Event Time Altitude Azimuth Distance (km) Brightness Sun altitude
Exits shadow 17:38:21 26° 251° (WSW) 2,933 2.9 -19.3°
Maximum altitude 17:42:37 34° 213° (SSW) 2,613 2.8 -18.5°
Drops below altitude 10° 17:51:58 10° 151° (SSE) 3,985 4.4 -16.8°
Sets 17:55:31 0° 141° (SE) 4,869 5.0 -16.2°
